User: anonymous
Location: Unspecified
(0.0000°N, 0.0000°E)
Time: 09:51:24
(UTC+02:00)
Language:

Iridium 33 - Orbit

View from above orbital plane
View from above orbital plane
View from above satellite
View from above satellite

Ground track
Ground track

The orbit data is extracted from the following two-line orbital elements,

1 24946U 97051C   14233.42507323  .00000128  00000-0  39492-4 0   371
2 24946 086.3923 358.0388 0007563 017.0938 045.6098 14.33171111886380
Epoch (UTC): 21 August 2014 10:12:06
Eccentricity: 0.0007563
inclination: 86.3923°
perigee height: 776 km
apogee height: 786 km
right ascension of ascending node: 358.0388°
argument of perigee: 17.0938°
revolutions per day: 14.33171111
mean anomaly at epoch: 45.6098°
orbit number at epoch: 88638

The dashed part of the orbit path shows where the satellite is in the earth's shadow,  

DLR